[ ตารางข้อมูล ] [ Min-Max ] [ วันนี้4 ] [ วันนี้2 ] [ เทียบ3วัน A ] [ เทียบ4วัน B ]   

วันนี้2   [ ◀ ช่วงเก่ากว่า ] [ ช่วงที่ 335 ] [ ช่วงใหม่กว่า ▶ ] [ ล่าสุด ]    [ 3 ชั่วโมง ] [ 6 ชั่วโมง ] [ 12 ชั่วโมง ] [ 24 ชั่วโมง ]   วันนี้2

อุณภูมิตู้ Knockdown4529  ราย 3 ชั่วโมง  ที่วัดได้ ในช่วงวันเวลา 29/03/2026 (19:26) ถึง 29/03/2026 (22:26) 
ความชื้นในตู้ Knockdown4529  ราย 3 ชั่วโมง  ที่วัดได้ ในช่วงวันเวลา 29/03/2026 (19:26) ถึง 29/03/2026 (22:26) 

 
DS18B20SHTC3 
IDDate d/m/Y & Timedata1
สูง
data2
ต่ำ
data3
นอก
temp
pcb
hum
pcb
Time
 7013  29/03/2026 22:22:53  29.1  29.1  28.3  28.9  72.0  22:22 
 7012  29/03/2026 22:18:12  29.1  29.1  28.3  28.9  72.1  22:18 
 7011  29/03/2026 22:13:29  29.1  29.1  28.4  29.1  72.0  22:13 
 7010  29/03/2026 22:08:47  29.1  29.1  28.4  28.9  72.2  22:08 
 7009  29/03/2026 22:04:05  29.1  29.1  28.4  28.9  72.0  22:04 
 7008  29/03/2026 21:59:24  29.1  29.1  28.4  29.1  72.3  21:59 
 7007  29/03/2026 21:54:43  29.1  29.1  28.4  28.9  72.1  21:54 
 7006  29/03/2026 21:50:01  29.1  29.1  28.4  29.0  72.1  21:50 
 7005  29/03/2026 21:45:19  29.1  29.2  28.4  29.1  72.2  21:45 
 7004  29/03/2026 21:40:37  29.1  29.2  28.4  29.2  72.2  21:40 
 7003  29/03/2026 21:35:55  29.1  29.2  28.4  28.9  72.0  21:35 
 7002  29/03/2026 21:31:13  29.1  29.2  28.4  29.1  72.1  21:31 
 7001  29/03/2026 21:26:31  29.1  29.2  28.4  29.0  72.0  21:26 
 7000  29/03/2026 21:21:50  29.1  29.2  28.3  29.1  72.1  21:21 
 6999  29/03/2026 21:17:08  29.2  29.2  28.4  29.1  72.1  21:17 
 6998  29/03/2026 21:12:27  29.2  29.2  28.4  29.1  72.0  21:12 
 6997  29/03/2026 21:07:42  29.2  29.2  28.4  29.1  72.1  21:07 
 6996  29/03/2026 21:03:01  29.2  29.2  28.4  29.1  72.1  21:03 
 6995  29/03/2026 20:58:19  29.2  29.3  28.4  29.2  72.1  20:58 
 6994  29/03/2026 20:53:37  29.2  29.3  28.4  29.1  72.1  20:53 
 6993  29/03/2026 20:48:54  29.2  29.3  28.4  29.0  71.9  20:48 
 6992  29/03/2026 20:44:13  29.3  29.4  28.4  29.3  72.0  20:44 
 6991  29/03/2026 20:39:30  29.3  29.4  28.5  29.2  72.0  20:39 
 6990  29/03/2026 20:34:48  29.3  29.4  28.5  29.2  72.1  20:34 

Data every 5 minute.


ใช้เวลาประมวลผล 0.00183 วินาที